Terug naar catalogus

SL-8 R/B

ActiefPO
NORAD 10355·ROCKET BODY·🇷🇺 Russia

Gelanceerd Sep 13, 1977 vanaf Plesetsk Cosmodrome

Loading…

Volgende Passages (komende 24 uur)

TLE

VersSource: Space-Track

Epoch: Sep 14, 2026, 22:55 UTC

1 10355U 77087B   26257.95542764 -.00000048  00000-0 -64697-4 0  9997
2 10355  82.9664  72.8906 0032848 333.3679 190.6509 13.76092526459731

Volg SL-8 R/B in realtime met AllMySat

Download on the App Store